Watford City, ND

5:42 PM CST on February 09, 2016 (GMT -0600)
Watford City

Weather History for KS25 - November, 2013

Change the Weather History Date:

Saturday, November 2, 2013

  Actual Average (KISN) Record (KISN)
Temperature  
Mean Temperature 37 °F 35 °F  
Max Temperature 55 °F 47 °F 69 °F (1981)
Min Temperature 19 °F 23 °F -8 °F (1935)
Degree Days  
Heating Degree Days 28 30  
Month to date heating degree days 60  
Since 1 July heating degree days 1087  
Cooling Degree Days 0 0  
Month to date cooling degree days 0  
Year to date cooling degree days 456  
Moisture  
Dew Point 25 °F    
Average Humidity 64    
Maximum Humidity 93    
Minimum Humidity 33    
Precipitation  
Precipitation 0.00 in 0.02 in 0.44 in (1944)
Month to date precipitation 0.05  
Year to date precipitation 13.15  
Sea Level Pressure  
Sea Level Pressure 29.89 in    
Wind  
Wind Speed 7 mph (SSE)    
Max Wind Speed 21 mph    
Max Gust Speed 28 mph    
Visibility 10 miles    
Events      
T = Trace of Precipitation, MM = Missing Value Source: NWS Daily Summary

Daily Weather History Graph

Daily Weather History Graph

Search for Another Location

Airport or City:

Trip Planner

Search our weather history database for the weather conditions in past years. The results will help you decide how hot, cold, wet, or windy it might be!

Date:

Astronomy

Nov. 02, 2013 Rise Set
Actual Time 8:39 AM CDT 6:32 PM CDT
Civil Twilight 8:06 AM CDT 7:05 PM CDT
Nautical Twilight 7:30 AM CDT 7:42 PM CDT
Astronomical Twilight 6:54 AM CDT 8:17 PM CDT
Moon 7:36 AM CDT (11/2) 6:07 PM CDT (11/2)
Length of Visible Light 10h 58m
Length of Day
9h 53m
Waning Crescent, 1% of the Moon is Illuminated
Nov 2
Waning Crescent
Nov 3
New
Nov 9
First Quarter
Nov 17
Full
Nov 25
Last Quarter

Hourly Weather History & Observations

Time (CDT) Temp. Windchill Dew Point Humidity Pressure Visibility Wind Dir Wind Speed Gust Speed Precip Events Conditions
12:15 AM 32.0 °F 27.5 °F 24.8 °F 75% 30.00 in 10.0 mi SSW 4.6 mph - N/A   Clear
12:35 AM 32.0 °F 25.6 °F 24.8 °F 75% 30.00 in 10.0 mi SW 6.9 mph - N/A   Clear
12:55 AM 28.4 °F 24.6 °F 24.8 °F 86% 30.00 in 10.0 mi South 3.5 mph - N/A   Clear
1:15 AM 28.4 °F - 24.8 °F 86% 30.00 in 10.0 mi Calm Calm - N/A   Clear
1:35 AM 28.4 °F 22.2 °F 24.8 °F 86% 30.01 in 10.0 mi SW 5.8 mph - N/A   Clear
1:55 AM 28.4 °F 23.3 °F 24.8 °F 86% 30.01 in 10.0 mi SW 4.6 mph - N/A   Clear
2:15 AM 26.6 °F 21.2 °F 23.0 °F 86% 30.02 in 10.0 mi SW 4.6 mph - N/A   Clear
2:35 AM 26.6 °F 20.0 °F 23.0 °F 86% 30.02 in 10.0 mi SW 5.8 mph - N/A   Clear
2:55 AM 28.4 °F 23.3 °F 24.8 °F 86% 30.02 in 10.0 mi SW 4.6 mph - N/A   Clear
3:15 AM 28.4 °F 21.2 °F 24.8 °F 86% 30.02 in 10.0 mi SW 6.9 mph - N/A   Clear
3:35 AM 26.6 °F 20.0 °F 23.0 °F 86% 30.02 in 10.0 mi SW 5.8 mph - N/A   Clear
3:55 AM 26.6 °F 21.2 °F 23.0 °F 86% 30.02 in 10.0 mi SW 4.6 mph - N/A   Clear
4:15 AM 26.6 °F 22.6 °F 23.0 °F 86% 30.02 in 10.0 mi SW 3.5 mph - N/A   Clear
4:35 AM 26.6 °F 19.1 °F 23.0 °F 86% 30.01 in 10.0 mi SW 6.9 mph - N/A   Clear
4:55 AM 26.6 °F 22.6 °F 23.0 °F 86% 30.02 in 10.0 mi SW 3.5 mph - N/A   Clear
5:15 AM 26.6 °F 21.2 °F 23.0 °F 86% 30.02 in 10.0 mi SW 4.6 mph - N/A   Clear
5:35 AM 24.8 °F 17.9 °F 23.0 °F 93% 30.02 in 10.0 mi SSW 5.8 mph - N/A   Clear
5:55 AM 24.8 °F 17.9 °F 23.0 °F 93% 30.01 in 10.0 mi SW 5.8 mph - N/A   Clear
6:15 AM 24.8 °F 16.1 °F 23.0 °F 93% 30.01 in 10.0 mi SW 8.1 mph - N/A   Clear
6:35 AM 24.8 °F 19.1 °F 23.0 °F 93% 30.01 in 10.0 mi SW 4.6 mph - N/A   Clear
6:55 AM 24.8 °F - 23.0 °F 93% 30.01 in 10.0 mi Calm Calm - N/A   Clear
7:15 AM 23.0 °F - 19.4 °F 86% 30.01 in 10.0 mi Calm Calm - N/A   Clear
7:35 AM 23.0 °F - 21.2 °F 93% 30.00 in 10.0 mi Calm Calm - N/A   Clear
7:55 AM 21.2 °F - 19.4 °F 93% 29.99 in 10.0 mi Calm Calm - N/A   Clear
8:15 AM 21.2 °F - 19.4 °F 93% 30.00 in 10.0 mi Calm Calm - N/A   Clear
8:35 AM 19.4 °F - 17.6 °F 93% 30.00 in 10.0 mi Calm Calm - N/A   Clear
8:55 AM 21.2 °F - 19.4 °F 93% 30.00 in 10.0 mi Calm Calm - N/A   Clear
9:15 AM 23.0 °F - 21.2 °F 93% 30.00 in 10.0 mi Calm Calm - N/A   Clear
9:35 AM 24.8 °F - 23.0 °F 93% 30.00 in 10.0 mi Calm Calm - N/A   Clear
9:55 AM 28.4 °F - 24.8 °F 86% 30.00 in 10.0 mi Calm Calm - N/A   Clear
10:15 AM 28.4 °F - 24.8 °F 86% 30.00 in 10.0 mi Calm Calm - N/A   Clear
10:35 AM 32.0 °F - 28.4 °F 87% 29.99 in 10.0 mi Calm Calm - N/A   Clear
10:55 AM 35.6 °F 31.7 °F 28.4 °F 75% 29.98 in 10.0 mi ESE 4.6 mph - N/A   Clear
12:35 PM 50.0 °F - 28.4 °F 43% 29.96 in 10.0 mi SSE 6.9 mph - N/A   Clear
12:55 PM 51.8 °F - 24.8 °F 35% 29.94 in 10.0 mi SSE 11.5 mph - N/A   Clear
1:15 PM 53.6 °F - 24.8 °F 33% 29.93 in 10.0 mi South 11.5 mph - N/A   Clear
1:35 PM 53.6 °F - 26.6 °F 35% 29.92 in 10.0 mi SSE 11.5 mph 16.1 mph N/A   Clear
1:55 PM 55.4 °F - 26.6 °F 33% 29.90 in 10.0 mi SSE 9.2 mph - N/A   Clear
2:15 PM 55.4 °F - 26.6 °F 33% 29.88 in 10.0 mi SSE 10.4 mph 18.4 mph N/A   Clear
2:35 PM 53.6 °F - 26.6 °F 35% 29.87 in 10.0 mi South 15.0 mph - N/A   Clear
2:55 PM 53.6 °F - 26.6 °F 35% 29.86 in 10.0 mi SSE 13.8 mph 19.6 mph N/A   Clear
3:15 PM 53.6 °F - 26.6 °F 35% 29.84 in 10.0 mi SSE 15.0 mph - N/A   Clear
3:35 PM 53.6 °F - 26.6 °F 35% 29.84 in 10.0 mi SSE 11.5 mph 21.9 mph N/A   Clear
3:55 PM 51.8 °F - 26.6 °F 38% 29.82 in 10.0 mi SE 11.5 mph 17.3 mph N/A   Clear
4:15 PM 53.6 °F - 26.6 °F 35% 29.81 in 10.0 mi SSE 16.1 mph - N/A   Clear
4:35 PM 53.6 °F - 26.6 °F 35% 29.80 in 10.0 mi SE 19.6 mph - N/A   Clear
4:55 PM 53.6 °F - 26.6 °F 35% 29.79 in 10.0 mi SE 17.3 mph 24.2 mph N/A   Clear
5:15 PM 51.8 °F - 26.6 °F 38% 29.78 in 10.0 mi SE 16.1 mph 21.9 mph N/A   Clear
5:35 PM 51.8 °F - 26.6 °F 38% 29.77 in 10.0 mi SE 16.1 mph 19.6 mph N/A   Scattered Clouds
5:55 PM 50.0 °F - 26.6 °F 40% 29.77 in 10.0 mi SE 13.8 mph 19.6 mph N/A   Scattered Clouds
6:15 PM 50.0 °F - 26.6 °F 40% 29.76 in 10.0 mi SE 12.7 mph 19.6 mph N/A   Partly Cloudy
6:35 PM 50.0 °F - 26.6 °F 40% 29.75 in 10.0 mi SE 15.0 mph - N/A   Clear
6:55 PM 48.2 °F - 28.4 °F 46% 29.75 in 10.0 mi North 4.6 mph - N/A   Clear
7:15 PM 48.2 °F - 28.4 °F 46% 29.74 in 10.0 mi SE 11.5 mph - N/A   Scattered Clouds
7:35 PM 48.2 °F - 28.4 °F 46% 29.73 in 10.0 mi SE 11.5 mph - N/A   Overcast
7:55 PM 48.2 °F - 28.4 °F 46% 29.73 in 10.0 mi SE 12.7 mph - N/A   Overcast
8:15 PM 48.2 °F - 28.4 °F 46% 29.72 in 10.0 mi SE 15.0 mph 19.6 mph N/A   Mostly Cloudy
8:35 PM 46.4 °F 40.1 °F 26.6 °F 46% 29.71 in 10.0 mi SE 15.0 mph - N/A   Mostly Cloudy
8:55 PM 46.4 °F 41.1 °F 26.6 °F 46% 29.71 in 10.0 mi SE 11.5 mph - N/A   Partly Cloudy
9:15 PM 44.6 °F 38.1 °F 26.6 °F 49% 29.70 in 10.0 mi SE 13.8 mph - N/A   Clear
9:35 PM 44.6 °F 38.1 °F 26.6 °F 49% 29.69 in 10.0 mi SE 13.8 mph - N/A   Clear
9:55 PM 44.6 °F 37.4 °F 26.6 °F 49% 29.68 in 10.0 mi SE 16.1 mph 19.6 mph N/A   Clear
10:15 PM 44.6 °F 37.4 °F 28.4 °F 53% 29.67 in 10.0 mi SE 16.1 mph 19.6 mph N/A   Clear
10:35 PM 44.6 °F 37.8 °F 28.4 °F 53% 29.66 in 10.0 mi SE 15.0 mph 21.9 mph N/A   Clear
10:55 PM 44.6 °F 37.4 °F 28.4 °F 53% 29.65 in 10.0 mi SE 16.1 mph 19.6 mph N/A   Clear
11:15 PM 44.6 °F 36.4 °F 28.4 °F 53% 29.63 in 10.0 mi SE 20.7 mph 27.6 mph N/A   Clear
11:35 PM 44.6 °F 36.9 °F 28.4 °F 53% 29.62 in 10.0 mi SE 18.4 mph 24.2 mph N/A   Clear
11:55 PM 44.6 °F 37.4 °F 28.4 °F 53% 29.62 in 10.0 mi SE 16.1 mph 24.2 mph N/A   Clear